Palma De Mallorca, Spain

6:08 AM CEST on August 25, 2016 (GMT +0200)
Palma De Mallorca

Weather History for LEPA - December, 2013

Change the Weather History Date:

Wednesday, December 18, 2013

  Actual Average Record
Temperature  
Mean Temperature 50 °F -  
Max Temperature 62 °F 58 °F 71 °F (2002)
Min Temperature 39 °F 40 °F 32 °F (2000)
Degree Days  
Heating Degree Days 14    
Moisture  
Dew Point 47 °F    
Average Humidity 88    
Maximum Humidity 100    
Minimum Humidity 55    
Precipitation  
Precipitation 0.00 in 0.05 in - ()
Sea Level Pressure  
Sea Level Pressure 30.27 in    
Wind  
Wind Speed 2 mph ()    
Max Wind Speed 9 mph    
Max Gust Speed -    
Visibility 6.6 miles    
Events Fog    
Averages and records for this station are not official NWS values.
T = Trace of Precipitation, MM = Missing Value Source: Averaged Metar Reports

Daily Weather History Graph

Daily Weather History Graph

Search for Another Location

Airport or City:

Trip Planner

Search our weather history database for the weather conditions in past years. The results will help you decide how hot, cold, wet, or windy it might be!

Date:

Astronomy

Dec. 18, 2013 Rise Set
Actual Time 8:04 AM CET 5:27 PM CET
Civil Twilight 7:34 AM CET 5:57 PM CET
Nautical Twilight 7:00 AM CET 6:31 PM CET
Astronomical Twilight 6:27 AM CET 7:04 PM CET
Moon 6:45 PM CET (12/18) 8:33 AM CET (12/18)
Length of Visible Light 10h 23m
Length of Day
9h 22m
Full, 99% of the Moon is Illuminated
Dec 18
Full
Dec 25
Last Quarter
Jan 1
New
Jan 8
First Quarter
Jan 16
Full

Hourly Weather History & Observations

Time (CET) Temp. Dew Point Humidity Pressure Visibility Wind Dir Wind Speed Gust Speed Precip Events Conditions
12:00 AM 49 °F 49 °F 98% 30.34 in - Calm Calm - -  
12:00 AM 50.0 °F 48.2 °F 94% 30.33 in 6.2 mi ENE 1.2 mph - N/A   Scattered Clouds
12:30 AM 50.0 °F 48.2 °F 94% 30.30 in 6.2 mi ESE 1.2 mph - N/A   Partly Cloudy
1:00 AM 49 °F 48 °F 93% 30.32 in 9 mi NNW 2.3 mph - -   Scattered Clouds
1:00 AM 50.0 °F 48.2 °F 94% 30.30 in 6.2 mi NW 2.3 mph - N/A   Partly Cloudy
1:30 AM 48.2 °F 48.2 °F 100% 30.30 in 6.2 mi Calm Calm - N/A   Partly Cloudy
2:00 AM 46 °F 45 °F 95% 30.30 in - NE 2.3 mph - -  
2:00 AM 44.6 °F 44.6 °F 100% 30.30 in 6.2 mi Calm Calm - N/A   Partly Cloudy
2:30 AM 44.6 °F 44.6 °F 100% 30.30 in 6.2 mi North 1.2 mph - N/A   Partly Cloudy
3:00 AM 44 °F 44 °F 97% 30.30 in - ENE 2.3 mph - -  
3:00 AM 46.4 °F 44.6 °F 93% 30.30 in 6.2 mi Calm Calm - N/A   Partly Cloudy
3:30 AM 42.8 °F 42.8 °F 100% 30.27 in 6.2 mi Calm Calm - N/A   Partly Cloudy
4:00 AM 43 °F 43 °F 100% 30.30 in 7 mi NNW 2.3 mph - -   Scattered Clouds
4:00 AM 42.8 °F 42.8 °F 100% 30.30 in 6.2 mi NNE 2.3 mph - N/A   Partly Cloudy
4:30 AM 42.8 °F 42.8 °F 100% 30.27 in 6.2 mi Calm Calm - N/A   Partly Cloudy
5:00 AM 41 °F 41 °F 98% 30.30 in - East 1.2 mph - -  
5:00 AM 42.8 °F 42.8 °F 100% 30.27 in 6.2 mi ESE 1.2 mph - N/A   Partly Cloudy
5:30 AM 41.0 °F 41.0 °F 100% 30.27 in 6.2 mi North 1.2 mph - N/A   Partly Cloudy
6:00 AM 42 °F 42 °F 99% 30.30 in - NW 1.2 mph - -  
6:00 AM 41.0 °F 41.0 °F 100% 30.27 in 6.2 mi Variable 1.2 mph - N/A   Partly Cloudy
6:30 AM 41.0 °F 41.0 °F 100% 30.27 in 6.2 mi Variable 2.3 mph - N/A   Partly Cloudy
7:00 AM 42 °F 42 °F 99% 30.30 in 7 mi Calm Calm - -   Scattered Clouds
7:00 AM 42.8 °F 42.8 °F 100% 30.27 in 6.2 mi Calm Calm - N/A   Partly Cloudy
7:30 AM 39.2 °F 39.2 °F 100% 30.27 in 6.2 mi ENE 1.2 mph - N/A Fog Partly Cloudy
8:00 AM 40 °F 40 °F 100% 30.31 in - Calm Calm - -  
8:00 AM 39.2 °F 39.2 °F 100% 30.30 in 6.2 mi Calm Calm - N/A   Partly Cloudy
8:30 AM 39.2 °F 39.2 °F 100% 30.30 in 6.2 mi North 2.3 mph - N/A Fog Shallow Fog
9:00 AM 42 °F 42 °F 98% 30.31 in - NNE 1.2 mph - -  
9:00 AM 41.0 °F 41.0 °F 100% 30.30 in 6.2 mi ENE 1.2 mph - N/A Fog Partly Cloudy
9:30 AM 44.6 °F 44.6 °F 100% 30.30 in 6.2 mi Calm Calm - N/A   Partly Cloudy
10:00 AM 49 °F 48 °F 95% 30.32 in 4 mi Calm Calm - -   Mist
10:00 AM 50.0 °F 50.0 °F 100% 30.30 in 6.2 mi Calm Calm - N/A   Partly Cloudy
10:30 AM 51.8 °F 50.0 °F 94% 30.30 in 6.2 mi Calm Calm - N/A   Partly Cloudy
11:00 AM 56 °F 50 °F 75% 30.33 in - Calm Calm - -  
11:00 AM 55.4 °F 51.8 °F 88% 30.33 in 6.2 mi Calm Calm - N/A   Partly Cloudy
11:30 AM 59.0 °F 53.6 °F 82% 30.33 in 6.2 mi Calm Calm - N/A   Partly Cloudy
12:00 PM 61 °F 50 °F 57% 30.31 in - SSW 2.3 mph - -  
12:00 PM 60.8 °F 50.0 °F 68% 30.30 in 6.2 mi Calm Calm - N/A   Partly Cloudy
12:30 PM 60.8 °F 50.0 °F 68% 30.30 in 6.2 mi WSW 4.6 mph - N/A   Partly Cloudy
1:00 PM 62 °F 51 °F 57% 30.28 in 12 mi SSW 8.1 mph - -   Partly Cloudy
1:00 PM 60.8 °F 50.0 °F 68% 30.27 in 6.2 mi SW 6.9 mph - N/A   Partly Cloudy
1:30 PM 60.8 °F 51.8 °F 72% 30.24 in 6.2 mi SSW 8.1 mph - N/A   Partly Cloudy
2:00 PM 62 °F 50 °F 55% 30.26 in - SW 9.2 mph - -  
2:00 PM 60.8 °F 51.8 °F 72% 30.24 in 6.2 mi SW 9.2 mph - N/A   Partly Cloudy
2:30 PM 60.8 °F 48.2 °F 63% 30.24 in 6.2 mi SW 8.1 mph - N/A   Scattered Clouds
3:00 PM 61 °F 51 °F 60% 30.25 in - SW 9.2 mph - -  
3:00 PM 59.0 °F 50.0 °F 72% 30.24 in 6.2 mi SW 6.9 mph - N/A   Scattered Clouds
3:30 PM 60.8 °F 51.8 °F 72% 30.24 in 6.2 mi SW 8.1 mph - N/A   Partly Cloudy
4:00 PM 61 °F 51 °F 62% 30.24 in 12 mi SW 8.1 mph - -   Scattered Clouds
4:00 PM 60.8 °F 51.8 °F 72% 30.24 in 6.2 mi SW 8.1 mph - N/A   Partly Cloudy
4:30 PM 59.0 °F 50.0 °F 72% 30.21 in 6.2 mi SW 6.9 mph - N/A   Partly Cloudy
5:00 PM 59 °F 51 °F 67% 30.23 in - SW 9.2 mph - -  
5:00 PM 59.0 °F 51.8 °F 77% 30.21 in 6.2 mi SW 5.8 mph - N/A   Partly Cloudy
5:30 PM 55.4 °F 50.0 °F 82% 30.21 in 6.2 mi SW 3.5 mph - N/A   Partly Cloudy
6:00 PM 56 °F 50 °F 75% 30.25 in - WSW 5.8 mph - -  
6:00 PM 55.4 °F 50.0 °F 82% 30.21 in 6.2 mi Variable 1.2 mph - N/A   Partly Cloudy
6:30 PM 55.4 °F 50.0 °F 82% 30.24 in 6.2 mi Variable 1.2 mph - N/A   Scattered Clouds
7:00 PM 52 °F 49 °F 84% 30.26 in 11 mi Calm Calm - -   Scattered Clouds
7:00 PM 51.8 °F 48.2 °F 88% 30.24 in 6.2 mi Calm Calm - N/A   Scattered Clouds
7:30 PM 50.0 °F 48.2 °F 94% 30.24 in 6.2 mi Calm Calm - N/A   Scattered Clouds
8:00 PM 49 °F 47 °F 92% 30.27 in - Calm Calm - -  
8:00 PM 50.0 °F 48.2 °F 94% 30.24 in 6.2 mi East 1.2 mph - N/A   Scattered Clouds
8:30 PM 48.2 °F 48.2 °F 100% 30.24 in 6.2 mi Calm Calm - N/A   Scattered Clouds
9:00 PM 48 °F 47 °F 93% 30.26 in - ENE 2.3 mph - -  
9:00 PM 48.2 °F 46.4 °F 93% 30.24 in 6.2 mi NE 2.3 mph - N/A   Scattered Clouds
9:30 PM 48.2 °F 48.2 °F 100% 30.24 in 6.2 mi NE 2.3 mph - N/A   Scattered Clouds
10:00 PM 49 °F 48 °F 94% 30.26 in 12 mi NNE 1.2 mph - -   Mostly Cloudy
10:00 PM 48.2 °F 48.2 °F 100% 30.24 in 6.2 mi ENE 2.3 mph - N/A   Scattered Clouds
10:30 PM 50.0 °F 48.2 °F 94% 30.24 in 6.2 mi East 2.3 mph - N/A   Scattered Clouds
11:00 PM 49 °F 48 °F 93% 30.26 in - North 1.2 mph - -  
11:00 PM 48.2 °F 48.2 °F 100% 30.24 in 6.2 mi Variable 1.2 mph - N/A   Scattered Clouds
11:30 PM 48.2 °F 48.2 °F 100% 30.24 in 6.2 mi Calm Calm - N/A   Scattered Clouds